Location: Tauranga
(37.6860°S, 176.1670°E)
Time: 04:09:02
(UTC+13:00)

Mayak - Pass Details

Date: 24 January 2019
Orbit: 582 x 602 km, 97.6° (Epoch: 21 October)

Event Time Altitude Azimuth Distance (km) Brightness Sun altitude
Exits shadow 22:47:55 24° 118° (ESE) 1,231 0.2 -21.9°
Drops below altitude 10° 22:51:01 10° 165° (SSE) 1,941 1.8 -22.3°
Sets 22:53:30 0° 178° (S) 2,854 3.0 -22.6°
